Regional Weather Roundup
Issued by NWS

Home | Current Version | Previous Version | Text Only | Print | Product List | Glossary Off
Versions: 1 2 3 4 5 6 7 8 9 10 11 12 13 14 15 16 17 18 19 20 21 22 23 24 25 26 27 28 29 30 31 32 33 34 35 36 37 38 39 40 41 42 43 44 45 46 47 48 49 50

000
ASUS43 KDMX 191606
RWRIA

WEATHER ROUNDUP FOR IOWA
NATIONAL WEATHER SERVICE DES MOINES IA
1000 AM CST THU JAN 19 2017

NOTE: "FAIR" INDICATES FEW OR NO CLOUDS BELOW 12,000 FEET WITH NO
SIGNIFICANT WEATHER AND/OR OBSTRUCTIONS TO VISIBILITY.

* - THESE STATIONS ARE NOT NWS STATIONS...THUS NOT UNDER NWS
QUALITY CONTROL.  THEY ALSO DO NOT REPORT WEATHER SUCH
AS PRECIPITATION OR FOG.

IAZ001>003-012>014-020>022-031>034-043>046-191700-
   NORTHWEST IOWA

CITY           SKY/WX    TMP DP  RH WIND       PRES   REMARKS
CARROLL *      CLOUDY    34  34 100 SE7       29.80F FOG     WCI  28
CHEROKEE *     CLOUDY    35  35 100 S6        29.77F FOG     WCI  30
DENISON *      CLOUDY    37  37 100 CALM      29.76F FOG
LE MARS *      PTSUNNY   37  34  87 SE9G16    29.76S WCI  31
ORANGE CITY *  CLOUDY    36  34  93 SE6       29.75R FOG     WCI  31
SHELDON *      CLOUDY    36  36 100 SE13      29.74R FOG     WCI  27
SIOUX CITY     CLOUDY    36  34  92 SE8       29.77S FOG     WCI  30
SPENCER        FOG       33  33 100 S9        29.78R VSB 1   WCI  25
STORM LAKE *   FOG       32  32 100 SE10      29.78S VSB<1/4 WCI  24
$$

IAZ055>058-069>071-079>083-090>094-191700-
   SOUTHWEST IOWA

CITY           SKY/WX    TMP DP  RH WIND       PRES   REMARKS
ATLANTIC *     CLOUDY    37  37 100 CALM      29.80R
AUDUBON *      CLOUDY    36  34  93 SE3       29.82R FOG
CLARINDA *     FOG       37  37 100 CALM      29.82F VSB 1/4
COUNCIL BLFS * CLOUDY    36  36 100 SE7       29.79R FOG     WCI  30
CRESTON *      FOG       36  36 100 E7        29.82F VSB 1/4 WCI  30
HARLAN  *      CLOUDY    36  36 100 CALM      29.82F FOG
LAMONI         CLOUDY    39  38  96 S3        29.81S FOG
RED OAK *      CLOUDY    37  37 100 MISG      29.80F FOG
SHENANDOAH *   CLOUDY    37  37 100 CALM      29.81S FOG
$$

IAZ047>049-059>061-072>074-084-191700-
   CENTRAL IOWA

CITY           SKY/WX    TMP DP  RH WIND       PRES   REMARKS
AMES           CLOUDY    33  33 100 SE5       29.85S FOG     WCI  29
ANKENY *       CLOUDY    34  34 100 SE6       29.86S FOG     WCI  29
BOONE *        MIX PCPN  32  32 100 SE8       29.83S WCI  25
CHARITON *     LGT RAIN  36  34  93 NE6       29.84S VSB 1/2 WCI  31
DES MOINES     CLOUDY    34  33  96 SE6       29.85F FOG     WCI  29
GRINNELL*      CLOUDY    32  32 100 E5        29.87S FOG     WCI  27
KNOXVILLE *    CLOUDY    34  34 100 CALM      29.84F FOG
MARSHALLTOWN   CLOUDY    31  31 100 E8        29.86S FOG     WCI  23
NEWTON *       CLOUDY    34  34 100 E6        29.85F FOG     WCI  29
PELLA *        CLOUDY    34  33  99 CALM      29.87F FOG
PERRY *        CLOUDY    33  33 100 E6        29.84R FOG     WCI  28
$$

IAZ004>006-015-016-023>025-035-036-191700-
   NORTH CENTRAL IOWA

CITY           SKY/WX    TMP DP  RH WIND       PRES   REMARKS
ALGONA *       CLOUDY    34  34 100 SE9       29.80F FOG     WCI  26
CLARION *      CLOUDY    34  34 100 SE10      29.83F WCI  26
ESTHERVILLE    CLOUDY    32  32 100 S15       29.78S FOG     WCI  22
FORT DODGE *   CLOUDY    34  30  86 SE7       29.83S WCI  28
MASON CITY     FOG       30  30 100 SE9       29.85F VSB 1/4 WCI  22
FOREST CITY *  FOG       32  32 100 SE9       29.83F VSB 1/4 WCI  24
WEBSTER CITY * CLOUDY    34  34 100 SE9       29.82S FOG     WCI  26
IOWA FALLS *   FOG       32  32  99 SE8       29.86S VSB 1/4 WCI  25
$$

IAZ007>011-017>019-026>030-037>042-050>054-066-191700-
   NORTHEAST IOWA

CITY           SKY/WX    TMP DP  RH WIND       PRES   REMARKS
CEDAR RAPIDS   CLOUDY    32  32 100 E7        29.88S FOG     WCI  26
CHARLES CITY * FOG       30  30 100 VRB8      29.86F VSB<1/4 WCI  23
CLINTON *      CLOUDY    33  32  96 E6        29.93F FOG     WCI  28
DECORAH *      FOG       30  30 100 SE6       29.87F VSB<1/4 WCI  24
DUBUQUE        FOG       32  32 100 SE6       29.92R VSB 1/4 WCI  26
MONTICELLO *   CLOUDY    34  34 100 E7        29.91S FOG     WCI  28
OELWEIN *      FOG       30  30 100 SE9       29.89F VSB<1/4 WCI  22
WATERLOO       FOG       32  31  96 SE6       29.88F VSB 3/4 WCI  26
$$

IAZ064-065-067-068-078-191700-
   EAST CENTRAL IOWA

CITY           SKY/WX    TMP DP  RH WIND       PRES   REMARKS
DAVENPORT      MOSUNNY   35  33  92 E6        29.92R FOG     WCI  30
IOWA CITY      CLOUDY    35  33  92 E7        29.90F FOG     WCI  29
MUSCATINE *    CLOUDY    36  36 100 NE3       29.90F FOG
QUAD CITIES    CLOUDY    36  33  89 NE5       29.91S FOG     WCI  32
$$

IAZ062-063-075>077-085>089-095>099-191700-
   SOUTHEAST IOWA

CITY           SKY/WX    TMP DP  RH WIND       PRES   REMARKS
BURLINGTON     CLOUDY    37  37 100 SE6       29.87S FOG     WCI  32
FAIRFIELD *    CLOUDY    37  36  93 SE9       29.86F FOG     WCI  31
FORT MADISON * CLOUDY    39  37  93 SE3       29.88S FOG
KEOKUK *       CLOUDY    39  39 100 SE8       29.87F FOG     WCI  34
OSKALOOSA *    CLOUDY    35  34  99 E3        29.86S FOG
OTTUMWA        LGT RAIN  37  35  92 CALM      29.85S FOG
WASHINGTON *   CLOUDY    36  36 100 E7        29.88S FOG     WCI  30
$$

ABBREVIATIONS USED IN REMARKS
   TC - TEMPERATURES IN CELSIUS
  WCI - WIND CHILL INDEX
   HX - HEAT INDEX
  VSB - VISIBILITY
$$




USA.gov is the U.S. government's official web portal to all federal, state and local government web resources and services.